Powrót do katalogu

CZ-4 DEB

AktywnySSO
NORAD 26142·DEBRIS·🇨🇳 China

Wystrzelony Oct 14, 1999 z Taiyuan Satellite Launch Center

Loading…

Następne Przeloty (najbliższe 24 godziny)

TLE

ŚwieżeSource: Space-Track

Epoka: Sep 14, 2026, 03:11 UTC

1 26142U 99057AE  26257.13298103  .00000244  00000-0  17017-3 0  9993
2 26142  98.7140 133.1813 0295515 255.2874 261.9584 13.87962023336756

Śledź CZ-4 DEB w czasie rzeczywistym z AllMySat

Download on the App Store